Temperature
7 7 7 8 8 8 8 8 8 8 8 8 8 8 7 7 7 7 7 7 7 6 6 6 6 6 6 6 6 6 6 5 5 5 5 5 5 5 4 4 4 4 4
6 6 7 7 7 7 7 7 7 7 7 7 7 7 7 7 7 7 7 6 6 6 6 6 6 6 6 6 6 5 5 5 5 5 5 5 4 4 4 4 4 4 4
6 6 6 6 6 6 7 7 7 7 7 7 7 7 7 7 6 6 6 6 6 6 6 6 6 6 5 5 5 5 5 5 4 4 4 4 4 4 3 3 3 3 3
5 5 6 6 6 6 6 6 6 6 6 6 6 6 6 6 6 6 6 5 5 5 5 5 5 5 5 5 5 5 4 4 4 4 3 3 3 3 3 3 3 3 3
5 5 5 5 5 5 5 5 6 6 6 6 6 6 5 5 5 5 5 5 5 5 5 5 5 5 5 4 4 4 4 4 3 3 3 3 2 2 2 2 2 2 2
4 4 4 5 5 5 5 5 5 5 5 5 5 5 5 5 5 5 5 5 5 4 4 4 4 4 4 4 4 4 3 3 3 3 2 2 2 2 2 1 1 1 1
3 3 4 4 4 4 4 4 4 4 4 4 4 4 4 4 4 4 4 4 4 4 4 4 4 4 4 4 3 3 3 3 2 2 2 2 2 1 1 1 1 0 0
3 3 3 3 3 3 4 4 4 4 4 4 4 4 4 4 4 4 4 4 3 4 4 4 4 4 3 3 3 3 3 2 2 2 1 1 1 1 1 1 0 0 0
2 2 2 3 3 3 3 3 3 3 3 3 3 3 3 3 3 3 3 3 3 3 3 3 3 3 3 3 2 2 2 2 2 1 1 1 1 1 0 0 -0 -1 -1
2 2 2 2 2 3 3 3 3 3 3 3 3 3 3 3 3 3 3 3 2 2 2 2 2 2 2 2 2 1 1 1 1 1 1 1 0 0 -0 -0 -1 -1 -1
1 1 1 2 2 2 2 2 2 2 2 2 2 2 2 2 2 2 2 2 2 2 2 2 2 2 2 1 1 1 1 0 0 0 -0 0 -0 -0 -1 -1 -1 -2 -2
1 1 1 1 1 1 1 1 2 2 2 2 2 2 2 2 2 2 2 2 1 1 1 1 1 1 1 1 1 0 0 -0 -0 -0 -0 -1 -1 -1 -1 -1 -2 -2 -2
0 0 0 0 1 1 1 1 1 1 1 1 1 1 1 1 1 1 1 1 1 1 1 1 1 1 0 0 -0 -0 -1 -1 -1 -1 -1 -1 -1 -1 -2 -2 -2 -2 -2
-0 -0 -0 -0 -0 -0 -0 -0 0 0 0 0 0 0 0 0 0 0 0 0 -0 -0 -0 -0 -0 -0 -0 -1 -1 -1 -1 -1 -1 -2 -2 -2 -2 -2 -2 -2 -2 -2 -2
-1 -1 -1 -1 -1 -1 -1 -1 -1 -1 -0 -0 -0 -0 -0 -0 -0 -0 -0 -0 -1 -1 -1 -1 -1 -1 -1 -2 -2 -2 -2 -2 -2 -2 -2 -2 -2 -3 -3 -3 -3 -3 -3
-2 -2 -2 -2 -2 -2 -2 -2 -2 -1 -1 -1 -1 -1 -1 -1 -1 -1 -1 -1 -1 -1 -2 -2 -2 -2 -2 -2 -2 -3 -3 -3 -3 -3 -3 -3 -3 -3 -3 -3 -4 -3 -4
-3 -3 -3 -3 -2 -2 -2 -2 -2 -2 -2 -2 -2 -2 -2 -2 -2 -2 -2 -2 -2 -2 -2 -2 -3 -3 -3 -3 -3 -3 -3 -3 -3 -4 -4 -4 -4 -4 -4 -4 -4 -4 -4
-3 -3 -3 -3 -3 -3 -3 -3 -3 -3 -3 -3 -3 -3 -3 -3 -2 -2 -2 -3 -3 -3 -3 -3 -3 -3 -3 -4 -4 -4 -4 -4 -4 -4 -4 -4 -4 -4 -5 -5 -5 -5 -5
-4 -4 -4 -4 -4 -4 -4 -4 -4 -4 -4 -3 -3 -3 -3 -3 -3 -3 -3 -3 -4 -4 -4 -4 -4 -4 -4 -4 -4 -4 -4 -4 -4 -5 -5 -5 -5 -5 -5 -5 -5 -5 -5
-4 -4 -4 -4 -4 -4 -4 -4 -4 -4 -4 -4 -4 -4 -4 -4 -4 -4 -4 -4 -4 -4 -4 -5 -5 -5 -5 -5 -5 -5 -5 -5 -5 -5 -5 -5 -5 -5 -5 -6 -6 -6 -6
-5 -5 -5 -5 -5 -5 -5 -5 -5 -5 -5 -5 -5 -5 -5 -5 -5 -5 -5 -5 -5 -5 -5 -5 -5 -5 -5 -5 -5 -5 -5 -5 -5 -6 -6 -6 -6 -6 -6 -6 -6 -6 -6
-6 -6 -5 -5 -5 -5 -5 -5 -5 -5 -5 -5 -5 -5 -5 -5 -6 -6 -6 -6 -6 -6 -6 -6 -6 -5 -5 -5 -6 -6 -6 -6 -6 -6 -6 -6 -6 -6 -7 -7 -7 -7 -7
-6 -6 -6 -6 -6 -6 -6 -6 -6 -6 -6 -6 -6 -6 -6 -6 -6 -6 -6 -6 -6 -6 -6 -6 -6 -6 -6 -6 -6 -6 -6 -6 -6 -6 -7 -7 -7 -7 -7 -7 -7 -7 -7
-7 -6 -6 -6 -6 -6 -6 -6 -6 -6 -6 -6 -6 -6 -6 -6 -6 -6 -6 -6 -6 -6 -6 -6 -6 -6 -6 -6 -6 -6 -6 -6 -7 -7 -7 -7 -7 -7 -7 -7 -7 -7 -7
-7 -7 -7 -7 -7 -7 -7 -7 -7 -7 -7 -7 -7 -7 -7 -7 -7 -7 -7 -7 -7 -7 -7 -6 -6 -6 -6 -6 -6 -6 -6 -7 -7 -7 -7 -7 -7 -7 -7 -7 -8 -8 -8
-8 -8 -8 -8 -8 -8 -7 -7 -7 -7 -7 -7 -7 -7 -7 -7 -7 -7 -7 -7 -7 -7 -7 -7 -7 -7 -7 -7 -7 -7 -7 -7 -7 -7 -7 -7 -8 -8 -8 -8 -8 -8 -8
Wind_Speed
7 7 7 7 7 7 7 7 7 7 7 8 8 8 8 8 8 8 8 8 7 6 6 6 6 5 4 3 3 3 3 3 3 2 2 2 3 4 4 5 6 6 7
6 6 6 6 6 6 7 7 7 7 7 7 8 8 8 8 8 8 8 8 8 7 7 6 6 4 5 4 3 3 3 3 3 3 3 3 4 4 4 5 5 6 7
6 6 6 6 6 6 6 6 6 7 7 7 7 8 8 8 8 8 8 8 7 7 7 7 6 6 5 4 4 3 3 2 2 3 3 2 3 3 4 4 5 5 6
5 6 6 6 6 6 6 6 6 7 7 7 7 7 7 7 7 8 8 7 7 6 6 6 6 6 6 5 4 4 3 3 3 3 2 3 3 4 4 4 4 5 5
5 5 5 5 5 5 5 6 6 6 6 6 7 7 7 6 6 7 7 7 7 6 6 6 5 5 5 5 4 4 4 3 3 3 3 3 4 4 4 4 5 5 6
5 5 5 5 5 5 5 5 5 6 6 6 6 7 7 6 7 8 7 7 7 7 6 5 5 6 6 5 5 5 6 6 5 4 4 5 6 5 4 4 5 6 6
4 4 4 5 5 5 5 5 5 5 6 6 6 6 6 6 8 8 7 6 6 6 6 5 4 4 5 5 5 5 5 6 7 6 7 7 6 6 5 6 6 7 7
3 3 4 5 5 5 5 5 5 5 5 5 5 6 5 6 7 8 7 6 5 5 6 6 6 5 5 5 4 4 4 5 6 6 6 7 6 6 6 7 7 7 7
3 3 3 4 4 5 5 5 4 5 5 5 5 5 5 5 7 7 6 5 5 5 4 5 6 6 6 6 5 4 4 4 4 5 6 7 7 8 7 4 5 5 7
2 2 2 3 3 4 4 4 4 4 4 4 4 5 5 5 6 7 6 4 5 4 3 4 5 6 6 6 5 5 5 4 3 3 4 5 5 6 7 6 6 6 6
1 2 2 2 2 3 3 3 4 4 4 4 4 4 4 4 5 6 6 4 4 4 3 3 4 5 5 6 6 5 5 4 4 4 4 4 4 3 4 5 6 6 6
2 2 2 2 2 2 3 3 3 4 4 3 3 3 2 3 3 4 5 4 4 4 4 3 3 5 5 5 5 4 4 3 3 3 4 4 4 4 4 5 6 7 7
4 3 3 3 3 2 3 3 3 3 2 2 2 2 2 2 3 4 4 5 4 3 3 3 3 4 3 3 4 4 3 3 3 4 4 4 4 4 3 4 5 5 6
4 4 3 3 3 3 2 2 2 2 2 2 2 2 2 1 1 2 2 2 3 2 2 2 2 2 2 2 3 3 3 3 3 4 4 3 3 3 3 3 4 4 4
5 4 4 3 3 3 2 2 1 1 1 2 2 2 2 2 1 1 1 2 2 2 2 1 1 1 1 2 2 2 2 2 3 3 3 3 3 3 4 3 4 4 5
4 4 3 3 3 2 3 3 5 4 4 3 2 1 0 1 1 0 1 1 2 3 2 2 2 2 2 2 2 3 3 3 3 3 3 4 4 4 4 4 4 4 5
4 3 3 3 2 2 2 3 3 4 5 4 4 3 2 2 2 1 1 1 2 2 2 2 2 2 2 3 3 3 4 3 3 3 4 4 4 4 4 5 4 5 6
4 3 3 2 2 2 2 2 2 1 1 2 3 3 2 2 2 2 2 1 0 1 1 2 2 3 3 3 3 3 3 3 3 4 4 4 4 5 5 5 5 6 6
4 3 3 2 2 2 2 1 1 1 1 1 2 2 2 2 2 2 2 0 1 1 2 2 2 2 3 3 4 4 4 4 4 4 5 5 5 5 6 6 6 7 7
4 4 3 2 1 1 1 1 1 1 1 1 1 2 2 2 1 1 1 1 1 2 2 2 3 3 3 4 4 4 4 5 5 5 5 5 5 5 6 7 6 6 7
3 3 4 2 2 1 1 1 1 1 1 1 2 2 2 2 1 2 2 2 2 3 3 3 3 3 3 4 4 5 5 5 5 5 6 6 6 6 6 6 7 7 7
2 2 2 2 2 1 1 1 1 1 1 2 2 2 2 2 2 2 2 3 3 3 3 3 4 4 4 4 4 5 5 6 6 6 6 6 6 6 6 6 7 7 7
2 2 2 2 2 2 1 1 1 1 2 2 2 2 2 2 2 3 3 3 3 3 4 4 4 5 5 5 6 6 6 6 6 6 6 6 6 6 6 7 8 8 8
2 2 2 2 2 2 2 1 1 2 2 2 2 2 2 3 3 3 3 3 3 4 4 4 5 6 7 7 7 7 8 8 8 8 8 7 7 7 7 7 8 8 8
2 2 2 2 2 2 2 2 2 2 2 3 3 3 3 3 3 4 4 4 4 4 5 6 6 6 7 9 9 9 10 11 11 9 8 7 8 8 8 8 8 8 8
2 2 2 2 2 2 2 2 2 3 3 3 3 3 4 4 4 4 4 4 4 5 5 6 7 8 9 9 10 10 11 11 11 10 9 7 7 7 7 7 9 8 8
Wind_Direction
175 179 175 177 182 180 180 182 178 173 173 177 175 173 173 175 176 176 176 177 182 178 179 187 189 184 182 188 194 203 214 218 232 252 257 253 252 260 276 283 289 293 295
170 172 171 169 171 176 178 180 174 174 176 177 176 175 173 173 176 180 180 182 185 186 188 190 193 188 193 195 199 208 216 227 231 238 251 255 261 259 265 273 283 288 289
168 166 164 165 169 175 177 174 172 174 176 175 175 177 175 174 176 182 184 185 189 193 194 194 196 192 200 203 208 215 220 222 233 231 249 259 268 264 272 278 281 285 290
166 167 167 168 171 172 172 172 172 171 173 177 179 178 177 176 178 181 184 185 191 196 198 200 200 200 205 205 210 216 213 213 214 222 239 256 265 270 271 277 286 290 290
165 168 173 169 165 164 167 167 165 167 170 173 174 174 174 177 180 183 186 186 190 195 198 204 206 203 208 209 210 212 208 214 217 225 239 253 256 264 266 277 283 293 291
168 172 170 164 161 163 165 162 161 164 166 169 174 177 178 181 174 178 185 190 190 195 199 204 203 198 198 207 215 222 221 219 220 231 242 247 253 261 268 272 280 287 287
166 166 164 160 160 165 163 161 163 166 167 171 176 182 186 183 174 179 185 192 197 201 202 202 206 205 203 209 215 226 235 239 235 238 242 250 258 258 262 270 270 274 282
153 158 160 163 162 163 162 166 168 167 172 178 181 185 187 185 176 180 184 192 197 205 205 206 209 210 207 206 215 227 241 248 244 244 250 258 261 259 259 267 273 280 285
143 154 158 161 162 164 169 173 170 169 173 178 179 182 183 184 177 178 181 191 196 206 209 209 210 213 202 197 207 221 241 258 258 253 264 268 268 262 257 261 265 273 282
137 151 151 156 164 172 174 171 168 169 172 170 175 183 184 187 176 178 185 190 193 199 208 211 212 212 204 200 212 218 233 251 258 265 266 265 263 256 249 249 254 263 278
117 127 126 133 150 161 159 160 161 158 157 159 167 177 181 181 174 180 190 193 195 194 206 215 213 201 207 217 227 231 231 247 253 256 262 267 268 265 262 262 260 259 266
97 101 103 107 113 127 132 138 146 148 149 150 150 161 172 177 176 185 191 196 204 205 213 219 215 201 214 231 236 226 225 235 242 248 254 260 263 268 272 276 274 273 270
91 95 96 90 87 98 122 135 136 138 150 158 155 161 174 182 181 181 188 192 199 216 223 218 213 206 219 231 215 219 227 232 236 245 251 260 269 275 281 286 282 280 280
82 83 94 97 93 89 92 114 139 154 165 169 170 179 183 184 186 180 188 189 188 201 204 179 178 197 216 222 228 232 234 235 242 250 261 270 276 276 273 276 280 284 288
75 76 79 87 96 89 83 78 109 150 179 173 184 188 185 207 219 218 209 210 211 204 195 205 226 231 233 242 254 259 253 247 252 258 262 266 268 271 274 276 274 276 276
69 67 71 77 82 91 94 76 60 66 70 71 75 120 140 116 130 164 230 215 188 172 184 212 227 239 244 247 250 260 262 257 256 257 259 262 263 266 270 273 272 271 273
60 61 66 70 75 80 91 95 82 65 71 71 73 71 82 96 95 91 116 149 156 165 198 222 238 248 255 255 255 258 264 266 263 257 256 258 261 263 265 266 266 269 274
50 51 55 57 61 64 72 77 84 85 59 41 49 56 54 69 73 69 78 92 136 206 228 236 246 255 259 262 264 264 266 266 262 258 257 256 255 258 262 264 263 266 273
36 37 42 42 43 51 59 65 67 61 36 15 15 23 30 41 49 44 52 50 260 267 266 264 265 265 266 269 270 266 264 263 264 263 262 260 257 258 261 263 265 266 270
33 38 33 37 42 47 49 57 56 47 12 347 338 343 351 7 7 358 342 313 287 278 277 276 275 271 270 269 269 266 264 263 263 264 265 265 262 259 260 262 263 264 266
24 29 29 32 33 27 19 6 350 336 321 316 319 337 338 322 312 311 307 299 289 285 285 282 278 275 270 268 267 265 263 263 262 263 264 264 263 262 262 262 263 264 266
22 20 19 20 16 10 360 347 335 319 310 303 311 330 332 318 310 304 303 300 299 293 287 283 278 273 267 264 265 267 264 263 263 263 263 264 264 262 262 262 262 263 264
22 18 10 5 2 1 352 340 325 311 306 302 302 306 306 305 303 299 298 299 299 294 291 284 279 278 277 272 268 265 264 265 263 262 263 266 265 262 261 261 262 265 264
9 6 359 353 348 340 332 325 314 302 296 297 296 294 294 295 295 297 296 296 294 292 291 286 280 278 279 280 277 271 267 268 269 263 260 261 264 262 260 260 263 264 265
355 352 348 342 332 320 310 307 304 299 295 293 291 291 293 294 295 296 297 297 296 293 293 291 285 283 281 281 279 276 273 274 273 269 263 260 260 261 261 263 264 267 265
337 334 329 325 320 315 306 301 300 298 294 294 291 290 291 292 292 292 293 292 293 292 292 291 288 288 287 285 281 279 280 280 279 275 271 264 262 263 264 264 266 265 266
Height
1454 1458 1461 1464 1467 1471 1473 1476 1479 1481 1484 1486 1489 1491 1494 1496 1498 1500 1503 1505 1508 1510 1512 1514 1516 1518 1520 1522 1523 1524 1525 1526 1525 1525 1526 1527 1527 1527 1526 1526 1525 1524 1523
1452 1455 1458 1462 1465 1468 1470 1473 1476 1478 1481 1483 1486 1488 1490 1492 1495 1497 1499 1502 1504 1506 1509 1511 1513 1515 1516 1518 1520 1521 1522 1522 1522 1522 1522 1523 1523 1522 1522 1521 1521 1519 1518
1451 1453 1456 1459 1462 1465 1468 1470 1473 1475 1478 1480 1482 1484 1487 1489 1492 1494 1496 1498 1501 1503 1506 1508 1509 1511 1513 1514 1516 1517 1518 1518 1518 1518 1518 1518 1518 1518 1518 1517 1516 1515 1514
1449 1451 1453 1456 1459 1462 1465 1467 1470 1472 1475 1477 1479 1481 1483 1485 1488 1491 1493 1495 1498 1500 1502 1504 1506 1507 1509 1511 1512 1513 1514 1514 1515 1515 1514 1514 1515 1514 1514 1513 1511 1510 1509
1448 1449 1451 1454 1457 1459 1462 1464 1466 1469 1471 1474 1476 1478 1480 1482 1485 1488 1490 1492 1494 1497 1499 1500 1502 1504 1505 1507 1508 1509 1510 1510 1511 1511 1510 1510 1510 1510 1509 1508 1507 1505 1504
1446 1448 1450 1452 1454 1456 1459 1461 1463 1466 1468 1471 1473 1475 1477 1480 1482 1485 1487 1489 1491 1493 1495 1496 1498 1500 1501 1503 1504 1505 1506 1507 1506 1506 1506 1506 1506 1505 1505 1504 1503 1501 1498
1444 1446 1448 1450 1451 1454 1456 1458 1461 1463 1466 1468 1470 1473 1475 1477 1480 1482 1484 1486 1488 1489 1491 1492 1494 1495 1497 1498 1500 1501 1502 1503 1503 1503 1502 1502 1501 1500 1500 1499 1498 1496 1494
1443 1444 1446 1448 1450 1452 1454 1456 1459 1461 1463 1466 1468 1470 1472 1474 1477 1479 1481 1482 1484 1485 1487 1488 1489 1491 1492 1493 1495 1496 1497 1498 1498 1498 1498 1497 1497 1496 1495 1494 1493 1491 1489
1442 1443 1445 1446 1448 1450 1452 1454 1456 1459 1461 1463 1465 1467 1469 1471 1473 1475 1477 1479 1480 1481 1482 1484 1485 1486 1487 1489 1490 1491 1491 1492 1493 1493 1493 1492 1492 1491 1490 1489 1487 1486 1483
1441 1442 1444 1445 1447 1448 1450 1452 1454 1456 1458 1460 1462 1464 1466 1468 1470 1472 1474 1475 1476 1477 1478 1480 1481 1482 1483 1484 1485 1486 1486 1487 1487 1488 1487 1487 1486 1485 1485 1484 1483 1481 1479
1440 1441 1443 1444 1446 1447 1449 1450 1452 1454 1456 1457 1459 1461 1463 1465 1467 1468 1470 1471 1472 1473 1474 1476 1477 1478 1479 1480 1481 1481 1481 1482 1482 1482 1482 1481 1481 1480 1479 1479 1478 1477 1475
1439 1440 1441 1443 1444 1445 1447 1448 1450 1452 1453 1455 1456 1457 1459 1461 1463 1464 1466 1467 1468 1469 1470 1471 1472 1474 1474 1475 1476 1476 1477 1477 1477 1477 1477 1476 1476 1475 1474 1474 1473 1472 1470
1438 1439 1440 1442 1443 1444 1446 1447 1448 1449 1451 1452 1453 1454 1456 1458 1460 1461 1462 1464 1465 1466 1467 1467 1468 1469 1470 1470 1471 1471 1472 1472 1472 1472 1472 1471 1471 1470 1469 1468 1467 1466 1464
1437 1438 1439 1441 1442 1443 1445 1446 1447 1448 1449 1450 1451 1452 1453 1455 1456 1457 1459 1460 1461 1462 1463 1464 1464 1465 1465 1466 1466 1466 1467 1467 1467 1467 1467 1467 1466 1465 1464 1463 1462 1460 1458
1437 1438 1439 1440 1441 1442 1444 1445 1446 1448 1449 1449 1450 1451 1451 1452 1454 1455 1455 1456 1457 1458 1459 1460 1460 1460 1460 1461 1461 1462 1462 1463 1462 1462 1462 1462 1461 1460 1459 1458 1457 1455 1454
1437 1438 1439 1440 1441 1442 1442 1444 1445 1446 1447 1448 1449 1450 1450 1451 1451 1452 1453 1454 1454 1455 1456 1455 1456 1456 1456 1457 1457 1457 1458 1458 1458 1458 1458 1458 1457 1456 1455 1453 1452 1451 1449
1438 1438 1439 1440 1441 1442 1442 1443 1444 1445 1446 1447 1447 1448 1448 1448 1448 1449 1450 1450 1451 1452 1452 1452 1452 1452 1453 1453 1453 1453 1453 1454 1454 1454 1453 1453 1452 1451 1450 1448 1447 1445 1444
1439 1439 1440 1440 1441 1442 1442 1443 1443 1444 1444 1445 1446 1446 1446 1447 1447 1447 1447 1448 1448 1448 1448 1449 1449 1449 1449 1449 1449 1449 1449 1449 1449 1449 1448 1448 1447 1446 1445 1443 1442 1441 1439
1440 1440 1441 1441 1441 1442 1442 1443 1443 1443 1443 1443 1444 1444 1445 1445 1445 1445 1445 1445 1445 1445 1445 1445 1446 1446 1446 1446 1445 1445 1445 1444 1444 1444 1443 1442 1442 1441 1439 1438 1437 1436 1434
1441 1441 1441 1441 1441 1441 1442 1442 1442 1442 1442 1443 1443 1443 1443 1443 1442 1443 1443 1443 1443 1443 1443 1443 1443 1443 1442 1442 1441 1441 1440 1440 1439 1438 1438 1437 1436 1435 1434 1433 1432 1431 1429
1441 1441 1441 1441 1440 1441 1441 1441 1441 1441 1441 1441 1441 1442 1442 1441 1441 1441 1441 1441 1441 1440 1440 1440 1439 1439 1439 1438 1437 1437 1436 1435 1434 1433 1432 1432 1431 1430 1429 1428 1427 1426 1424
1441 1440 1440 1440 1439 1439 1440 1440 1440 1440 1440 1440 1440 1440 1440 1440 1439 1439 1439 1438 1438 1438 1437 1437 1436 1436 1435 1434 1433 1432 1431 1430 1429 1428 1427 1426 1426 1425 1424 1422 1421 1420 1418
1440 1440 1439 1439 1438 1438 1438 1438 1438 1438 1438 1438 1438 1438 1438 1437 1437 1437 1436 1436 1435 1435 1434 1433 1432 1432 1431 1430 1429 1428 1427 1426 1425 1424 1422 1421 1420 1419 1418 1417 1416 1414 1413
1440 1439 1438 1437 1437 1437 1436 1436 1436 1436 1436 1436 1436 1436 1435 1435 1435 1434 1433 1433 1432 1431 1430 1429 1428 1427 1426 1425 1424 1423 1422 1421 1420 1419 1418 1416 1415 1414 1413 1411 1410 1409 1408
1439 1438 1437 1436 1435 1435 1435 1434 1434 1434 1434 1434 1434 1433 1433 1432 1432 1431 1430 1429 1428 1427 1426 1425 1424 1423 1422 1421 1420 1419 1417 1416 1415 1414 1413 1412 1410 1409 1407 1406 1405 1403 1402
1437 1437 1436 1435 1434 1433 1433 1432 1432 1432 1432 1431 1431 1430 1430 1429 1428 1428 1427 1426 1424 1423 1422 1421 1420 1419 1417 1416 1415 1414 1412 1411 1410 1409 1408 1407 1405 1403 1402 1401 1400 1399 1397